Regional Weather Roundup
Issued by NWS Newport/Morehead, NC

Current Version | Previous Version | Graphics & Text | Print | Product List | Glossary Off
Versions: 1 2 3 4 5 6 7 8 9 10 11 12 13 14 15 16 17 18 19 20 21 22 23 24 25 26 27 28 29 30 31 32 33 34 35 36 37 38 39 40 41 42 43 44 45 46 47 48 49 50

418
ASUS42 KMHX 042113
RWRMHX
WEATHER ROUNDUP FOR EASTERN NORTH CAROLINA
NATIONAL WEATHER SERVICE NEWPORT/MOREHEAD CITY NC
500 PM EDT WED MAY 04 2016

NOTE: "FAIR" INDICATES FEW OR NO CLOUDS BELOW 12,000 FEET
WITH NO SIGNIFICANT WEATHER AND/OR OBSTRUCTIONS TO VISIBILITY

NCZ015>017-031-032-045>047-102-103-042200-
NORTH COAST

CITY           SKY/WX    TMP DP  RH WIND       PRES   REMARKS
EDENTON        SUNNY     72  62  71 N6        29.58F
ELIZABETH CITY PTSUNNY   71  59  65 N9        29.58F
KITTY HAWK     MOCLDY    65  57  74 NE9       29.58F
MANTEO         MOSUNNY   64  61  88 NE10      29.59S

$$

NCZ045>047-081-094-103-104-042200-
CENTRAL COAST

CITY           SKY/WX    TMP DP  RH WIND       PRES   REMARKS
FRISCO         MOSUNNY   70  64  81 SW5       29.58F
SWANQUARTER    NOT AVBL

$$

NCZ095-097-098-100-101-042200-
SOUTHERN COAST

CITY           SKY/WX    TMP DP  RH WIND       PRES   REMARKS
BEAUFORT       SUNNY     73  66  78 SW13      29.57R
CEDAR ISLAND   NOT AVBL
JACKSONVILLE   PTSUNNY   75  62  64 NW6       29.56R
PINEY ISLAND   CLOUDY   N/A N/A N/A CALM      29.57R
WILMINGTON     MOSUNNY   80  59  48 W12       29.56S


$$

NCZ011>013-027>030-043-044-078>080-089-090>093-098-042200-
COASTAL PLAIN

CITY           SKY/WX    TMP DP  RH WIND       PRES   REMARKS
AHOSKIE        MOSUNNY   69  58  67 NE3       29.58F
CLINTON        MOSUNNY   76  55  47 N3        29.60R
ELIZABETHTOWN  CLOUDY    77  54  44 NW5       29.60R
GOLDSBORO      MOSUNNY   76  56  49 VRB7      29.57S
GREENVILLE     MOSUNNY   77  59  53 NW6       29.61S
HAVELOCK       CLOUDY    70  67  90 CALM      29.58R
KENANSVILLE    NOT AVBL
KINSTON        MOSUNNY   75  57  53 NW5       29.59R
NEW BERN       PTSUNNY   77  61  57 NW8       29.57S
RICHLANDS      SUNNY     77  61  57 NW9       29.57R
ROCKY MOUNT    PTSUNNY   74  54  49 W5        29.58F
WASHINGTON     SUNNY     75  58  55 W7        29.56S
WHITEVILLE     NOT AVBL

$$

AMZ130-135-150-152-154-156-158-170-250-252-270-ANZ085-086-088-633-658-670-042200-
MARINE OBSERVATIONS

STATION/POSITION TIME  TEMP    WIND        PRES    WAVE   SWELL
                       AIR SEA DIR/SP/G            HT/PER HT/PER
                 (UTC) (F)     (DEG/KT/KT) (MB)    (FT/S) (FT/S)
CHESAPEAKE LIGHT 2000   54      20/ 10/ 10 1003.8
64 E VA BEACH    2050   55 56  360/  8/ 10 1002.0    3/ 6   3/ 6
DUCK             2000   58      20/ 12/ 14 1001.7
2 E DUCK         2011      60                N/A     3/ 6
OREGON INLET     2000   60 64   20/  8/ 10 1002.0
13E OREGON INLT  2100      63                N/A     3/ 6   3/ 6
HATTERAS CG      2000   71 70  190/  4/  8 1001.4
DIAMOND BUOY     2050   71 71  240/  4/  4 1001.8    3/ 8   3/ 8
CAPE LOOKOUT     2100   72     220/ 10/ 14 1000.9
BEAUFORT LAB     2000   71 68  180/ 11/ 14 1000.3
30 SE NEW RVR IN 2025      73                N/A     5/ 7
27 SE WRIGHTSVLE 2008   72 72  230/ 16/ 19 1001.1
5 SE WRIGHTSVLE  2008   71 70  220/ 17/ 23 1001.6
225 S CAPE HAT   2050   74 74  180/ 23/ 27 1003.7    5/ 7   2/ 9
41 SE CHARLESTON 2050   73 75  230/ 16/ 17 1002.7    3/ 4   2/ 7

$$




USA.gov is the U.S. government's official web portal to all federal, state and local government web resources and services.